Location: Clarion
(42.7316°N, 93.7330°W)
Time: 21:32:21
(UTC+00:00)

Cosmos 1025 Rocket - Pass Details

Date: 22 April 2026
Orbit: 586 x 609 km, 82.5° (Epoch: 12 May)

Event Time Altitude Azimuth Distance (km) Brightness Sun altitude
Rises 01:43:41 0° 6° (N) 2,832 6.7 -7.6°
Reaches altitude 10° 01:46:23 10° 23° (NNE) 1,929 5.6 -8.0°
Maximum altitude 01:49:35 20° 72° (ENE) 1,375 4.4 -8.6°
Enters shadow 01:52:21 12° 117° (ESE) 1,804 4.7 -9.0°
